| time (UTC) | temp F | wind direction | speed MPH | gust MPH | rain 1hr in | rain 24hr in | rain mn in | humidity % | barometer mb |
| 20260504140415 | 66 | 315 | 3.0 | 4.0 | 0.00 | 0.00 | 0.00 | 34 | 1016.7 |
| 20260504130435 | 64 | 0.0 | 0.0 | 0.00 | 0.00 | 0.00 | 38 | 1016.4 | |
| 20260504110435 | 63 | 0.0 | 0.0 | 0.00 | 0.00 | 0.00 | 41 | 1015.3 | |
| 20260504100415 | 63 | 0.0 | 0.0 | 0.00 | 0.00 | 0.00 | 42 | 1015.0 | |
| 20260504081415 | 68 | 0.0 | 0.0 | 0.00 | 0.00 | 0.00 | 36 | 1015.5 | |
| 20260504080415 | 68 | 0.0 | 0.0 | 0.00 | 0.00 | 0.00 | 37 | 1015.7 | |
| 20260504050415 | 69 | 0.0 | 0.0 | 0.00 | 0.00 | 0.00 | 37 | 1015.4 | |
| 20260504045415 | 69 | 0.0 | 0.0 | 0.00 | 0.00 | 0.00 | 36 | 1015.5 | |
| 20260504044415 | 70 | 0.0 | 0.0 | 0.00 | 0.00 | 0.00 | 36 | 1015.3 | |
| 20260504043416 | 71 | 0.0 | 0.0 | 0.00 | 0.00 | 0.00 | 35 | 1015.6 | |
| 20260504042435 | 71 | 0.0 | 0.0 | 0.00 | 0.00 | 0.00 | 35 | 1015.3 | |
| 20260504041415 | 71 | 0.0 | 0.0 | 0.00 | 0.00 | 0.00 | 35 | 1015.2 | |
| 20260504040416 | 70 | 0.0 | 0.0 | 0.00 | 0.00 | 0.00 | 36 | 1015.0 | |
| 20260504035416 | 70 | 0.0 | 0.0 | 0.00 | 0.00 | 0.00 | 37 | 1015.1 | |
| 20260504034415 | 70 | 0.0 | 0.0 | 0.00 | 0.00 | 0.00 | 36 | 1015.1 | |
| 20260504033415 | 71 | 0.0 | 0.0 | 0.00 | 0.00 | 0.00 | 35 | 1015.1 | |
| 20260504032435 | 71 | 0.0 | 0.0 | 0.00 | 0.00 | 0.00 | 34 | 1015.1 | |
| 20260504031415 | 71 | 0.0 | 0.0 | 0.00 | 0.00 | 0.00 | 34 | 1015.0 | |
| 20260504030415 | 71 | 0.0 | 0.0 | 0.00 | 0.00 | 0.00 | 34 | 1015.3 | |
| 20260504025415 | 72 | 0.0 | 0.0 | 0.00 | 0.00 | 0.00 | 33 | 1015.3 | |
| 20260504024415 | 72 | 0.0 | 0.0 | 0.00 | 0.00 | 0.00 | 32 | 1015.2 | |
| 20260504023415 | 72 | 0.0 | 0.0 | 0.00 | 0.00 | 0.00 | 32 | 1015.3 | |
| 20260504022415 | 72 | 0.0 | 0.0 | 0.00 | 0.00 | 0.00 | 31 | 1015.2 | |
| 20260504021415 | 73 | 0.0 | 0.0 | 0.00 | 0.00 | 0.00 | 30 | 1014.9 | |
| 20260504020415 | 73 | 0.0 | 0.0 | 0.00 | 0.00 | 0.00 | 30 | 1014.7 | |
| 20260504015435 | 75 | 0.0 | 0.0 | 0.00 | 0.00 | 0.00 | 28 | 1015.0 | |
| 20260504014415 | 75 | 0.0 | 0.0 | 0.00 | 0.00 | 0.00 | 27 | 1014.6 | |
| 20260504013415 | 76 | 0.0 | 0.0 | 0.00 | 0.00 | 0.00 | 27 | 1014.9 | |
| 20260504012415 | 76 | 203 | 3.0 | 5.0 | 0.00 | 0.00 | 0.00 | 27 | 1015.1 |
| 20260504011415 | 77 | 225 | 4.0 | 6.0 | 0.00 | 0.00 | 0.00 | 26 | 1015.0 |
| 20260504010415 | 77 | 0.0 | 0.0 | 0.00 | 0.00 | 0.00 | 26 | 1015.0 | |
| 20260504005415 | 77 | 248 | 4.0 | 5.0 | 0.00 | 0.00 | 0.00 | 26 | 1014.9 |
| 20260504004435 | 78 | 248 | 1.0 | 3.0 | 0.00 | 0.00 | 0.00 | 25 | 1015.4 |
| 20260504003435 | 78 | 225 | 3.0 | 8.0 | 0.00 | 0.00 | 0.00 | 25 | 1015.5 |
| 20260504002415 | 78 | 293 | 1.0 | 7.0 | 0.00 | 0.00 | 0.00 | 28 | 1015.5 |
| 20260504001415 | 77 | 180 | 2.0 | 4.0 | 0.00 | 0.00 | 0.00 | 31 | 1015.2 |
| 20260504000416 | 77 | 0.0 | 0.0 | 0.00 | 0.00 | 0.00 | 32 | 1015.4 | |
| 20260503235435 | 78 | 135 | 2.0 | 4.0 | 0.00 | 0.00 | 0.00 | 32 | 1015.4 |
| 20260503234455 | 77 | 0.0 | 0.0 | 0.00 | 0.00 | 0.00 | 32 | 1015.6 | |
| 20260503233415 | 77 | 0.0 | 1.0 | 0.00 | 0.00 | 0.00 | 31 | 1015.8 | |
| 20260503232415 | 78 | 158 | 1.0 | 2.0 | 0.00 | 0.00 | 0.00 | 31 | 1016.0 |
| 20260503231415 | 78 | 135 | 3.0 | 4.0 | 0.00 | 0.00 | 0.00 | 31 | 1016.2 |
| 20260503230435 | 79 | 180 | 1.0 | 3.0 | 0.00 | 0.00 | 0.00 | 30 | 1016.8 |
| 20260503225415 | 81 | 203 | 5.0 | 8.0 | 0.00 | 0.00 | 0.00 | 29 | 1016.9 |
| 20260503224435 | 80 | 180 | 3.0 | 4.0 | 0.00 | 0.00 | 0.00 | 30 | 1016.9 |
| 20260503223435 | 79 | 225 | 2.0 | 4.0 | 0.00 | 0.00 | 0.00 | 30 | 1017.0 |
| 20260503222415 | 79 | 135 | 3.0 | 6.0 | 0.00 | 0.00 | 0.00 | 30 | 1017.1 |
| 20260503221435 | 79 | 90 | 3.0 | 5.0 | 0.00 | 0.00 | 0.00 | 31 | 1017.0 |
| 20260503220415 | 78 | 135 | 3.0 | 4.0 | 0.00 | 0.00 | 0.00 | 31 | 1017.1 |
| 20260503215415 | 79 | 135 | 2.0 | 7.0 | 0.00 | 0.00 | 0.00 | 30 | 1017.7 |
| 20260503214415 | 77 | 0.0 | 0.0 | 0.00 | 0.00 | 0.00 | 32 | 1017.8 | |
| 20260503213435 | 77 | 135 | 4.0 | 6.0 | 0.00 | 0.00 | 0.00 | 34 | 1017.9 |
| 20260503212415 | 76 | 135 | 4.0 | 7.0 | 0.00 | 0.00 | 0.00 | 33 | 1018.3 |
| 20260503211415 | 76 | 0.0 | 0.0 | 0.00 | 0.00 | 0.00 | 33 | 1018.6 | |
| 20260503210435 | 76 | 135 | 6.0 | 9.0 | 0.00 | 0.00 | 0.00 | 33 | 1018.8 |
| 20260503205415 | 75 | 248 | 4.0 | 7.0 | 0.00 | 0.00 | 0.00 | 34 | 1019.1 |
| 20260503204415 | 76 | 180 | 2.0 | 4.0 | 0.00 | 0.00 | 0.00 | 34 | 1019.4 |
| 20260503203415 | 76 | 0.0 | 2.0 | 0.00 | 0.00 | 0.00 | 32 | 1019.6 | |
| 20260503202415 | 76 | 0.0 | 0.0 | 0.00 | 0.00 | 0.00 | 32 | 1019.7 | |
| 20260503201415 | 76 | 135 | 2.0 | 4.0 | 0.00 | 0.00 | 0.00 | 33 | 1020.3 |
| 20260503200415 | 75 | 158 | 1.0 | 3.0 | 0.00 | 0.00 | 0.00 | 33 | 1020.1 |
| 20260503195415 | 75 | 113 | 3.0 | 10.0 | 0.00 | 0.00 | 0.00 | 33 | 1020.2 |
| 20260503194415 | 75 | 135 | 3.0 | 5.0 | 0.00 | 0.00 | 0.00 | 34 | 1020.5 |
| 20260503193415 | 75 | 135 | 2.0 | 3.0 | 0.00 | 0.00 | 0.00 | 33 | 1020.8 |
| 20260503192417 | 74 | 113 | 2.0 | 3.0 | 0.00 | 0.00 | 0.00 | 34 | 1020.8 |
| 20260503191417 | 73 | 68 | 4.0 | 7.0 | 0.00 | 0.00 | 0.00 | 35 | 1020.8 |
| 20260503190417 | 72 | 0.0 | 1.0 | 0.00 | 0.00 | 0.00 | 36 | 1020.8 | |
| 20260503185417 | 71 | 135 | 6.0 | 9.0 | 0.00 | 0.00 | 0.00 | 37 | 1020.6 |
| 20260503184417 | 71 | 113 | 4.0 | 7.0 | 0.00 | 0.00 | 0.00 | 38 | 1020.6 |
| 20260503183417 | 72 | 68 | 1.0 | 5.0 | 0.00 | 0.00 | 0.00 | 38 | 1020.9 |
| 20260503182417 | 71 | 113 | 2.0 | 4.0 | 0.00 | 0.00 | 0.00 | 38 | 1021.2 |
| 20260503181417 | 70 | 90 | 2.0 | 5.0 | 0.00 | 0.00 | 0.00 | 38 | 1021.3 |
| 20260503180417 | 70 | 135 | 3.0 | 5.0 | 0.00 | 0.00 | 0.00 | 41 | 1021.6 |
| 20260503175417 | 69 | 158 | 4.0 | 5.0 | 0.00 | 0.00 | 0.00 | 39 | 1021.4 |
| 20260503174415 | 69 | 113 | 5.0 | 10.0 | 0.00 | 0.00 | 0.00 | 42 | 1021.6 |
| 20260503173417 | 68 | 158 | 2.0 | 3.0 | 0.00 | 0.00 | 0.00 | 41 | 1021.8 |
| 20260503172417 | 67 | 90 | 1.0 | 4.0 | 0.00 | 0.00 | 0.00 | 43 | 1021.5 |
| 20260503171417 | 67 | 90 | 3.0 | 7.0 | 0.00 | 0.00 | 0.00 | 43 | 1021.9 |
| 20260503170417 | 67 | 113 | 7.0 | 13.0 | 0.00 | 0.00 | 0.00 | 42 | 1021.8 |
| 20260503150417 | 62 | 113 | 6.0 | 10.0 | 0.00 | 0.00 | 0.00 | 50 | 1021.8 |